www.pogodaiklimat.ru

Погода и климат >> Архив погоды >> Россия >> город Москва >> Москва


АРХИВ ПОГОДЫ в Москве

Время (UTC), дата Ветер
(напр.,м/с)
 
Видим.   Явления Облачность Т
(С)
Тd
(С)
f
(%)
Тe
(С)
Тes
(С)
Комфортность P
(гПа)
Po
(гПа)
Тmin
(С)
Tmax
(С)
R
(мм)
R24
(мм)
S
(см)
21 11.06 штиль 0 н/о ясно +17.6 +9.4 59 +18 +18 тепло 1020.7 1002.1
00 12.06 штиль 0 10 км ясно +15.3 +10.3 72 +15 +15 тепло 1020.3 1001.5
03 12.06 штиль 0 10 км 6/6 600 м
[Cu Sc]
+17.9 +13.2 74 +18 +19 тепло 1020.2 1001.6 +14.7
06 12.06 штиль 0 10 км 10/0
[Ci sp]
+24.0 +10.2 42 +25 +35 комфорт 1019.1 1000.9 +14.7
09 12.06 СВ 1 10 км 10/8 600 м
[Sc Ac trans]
+24.4 +9.5 39 +25 +27 комфорт 1018.3 1000.1
12 12.06 СВ 2 10 км 10/8 600 м
[Sc Ac trans]
+20.9 +10.9 53 +24 +25 комфорт 1019.1 1000.7
15 12.06 С 2 10 км 10/8 600 м
[Sc Ac trans]
+19.7 +11.2 58 +22 +22 комфорт 1019.3 1000.8
18 12.06 СВ 2 10 км 8/3 600 м
[Sc Cs]
+18.7 +9.8 56 +20 +20 тепло 1021.0 1002.4 +24.4
21 12.06 С 3 н/о ясно +15.9 +10.2 69 +15 +15 по сезону 1023.3 1004.4
00 13.06 СВ 2 10 км ясно +11.7 +3.6 58 +11 +11 по сезону 1025.7 1006.5
03 13.06 В 2 10 км ясно +9.3 +2.0 60 +8 +9 очень
холодно
1027.6 1008.2 +9.3
06 13.06 В 2 10 км ясно +12.5 +0.9 45 +12 +21 холодно 1028.7 1009.5 +9.3
09 13.06 В 2 10 км ясно +16.1 +0.3 34 +16 +32 опасность
простуды
1028.5 1009.6
12 13.06 СВ 2 10 км ясно +19.0 +0.2 28 +20 +32 по сезону 1027.1 1008.4
15 13.06 СВ 1 10 км ясно +19.6 -1.0 25 +21 +25 комфорт 1025.7 1007.0
18 13.06 штиль 0 10 км 4/0
[Ci]
+16.6 +0.8 34 +17 +17 по сезону 1024.7 1005.9 +20.2
21 13.06 штиль 0 н/о 8/8 600 м
[Sc]
+13.6 +5.3 57 +13 +13 прохладно 1026.1 1007.0
00 14.06 штиль 0 10 км ясно +10.9 +4.5 65 +11 +11 по сезону 1024.9 1005.7
03 14.06 штиль 0 10 км ясно +14.7 +5.1 53 +15 +17 по сезону 1022.9 1004.0 +10.5
06 14.06 штиль 0 10 км 9/8 600 м
[Sc Ci sp]
+19.0 +5.3 41 +19 +22 тепло 1021.7 1003.1 +10.5
09 14.06 Ю 1 10 км {ливн. осадки} 10/10 600 м
[Sc]
+19.5 +10.1 55 +22 +22 комфорт 1018.6 1000.1
12 14.06 штиль 0 4000 м в посл. час гроза {ливн. осадки} 10/10 600 м
[Cb cap]
+16.2 +15.2 94 +16 +16 холодно 1016.6 998.0
15 14.06 СЗ 1 10 км 10/10 600 м
[Sc]
+20.2 +17.0 82 +24 +24 комфорт 1014.2 995.9 11
18 14.06 СВ 1 10 км 8/8 600 м
[Cu Sc]
+19.5 +16.4 82 +23 +23 комфорт 1014.3 995.9 +21.2 11
21 14.06 СВ 2 н/о дымка 10/10 300 м
[Sc]
+15.8 +13.6 87 +16 +16 по сезону 1015.5 996.8
00 15.06 В 1 4000 м дымка 10/10 300 м
[Sc]
+14.0 +11.8 87 +14 +14 по сезону 1015.7 996.9
03 15.06 В 1 10 км 10/10 600 м
[Sc]
+13.3 +10.6 84 +13 +13 прохладно 1016.1 997.2 +13.1
06 15.06 СВ 1 10 км 10/10 600 м
[Sc]
+14.8 +10.9 77 +15 +15 прохладно 1016.1 997.3 +13.1
09 15.06 СЗ 1 10 км 10/10 600 м
[Sc]
+17.6 +11.4 67 +19 +19 по сезону 1015.4 996.8
12 15.06 ЮЗ 1 10 км 10/10 600 м
[Sc]
+20.2 +12.7 62 +23 +23 комфорт 1014.5 996.1
15 15.06 СВ 1 10 км 10/10 600 м
[Sc]
+19.0 +13.9 72 +21 +21 комфорт 1014.4 995.9
18 15.06 штиль 0 4000 м дымка 1/0
[Ac trans]
+16.4 +14.1 86 +16 +16 по сезону 1014.4 995.8 +20.6
21 15.06 штиль 0 н/о дымка 1/0
[Ac trans]
+13.7 +13.0 96 +13 +13 прохладно 1014.3 995.5
00 16.06 штиль 0 4000 м дымка 9/9 600 м
[Sc]
+13.5 +13.1 97 +13 +13 по сезону 1013.9 995.1
03 16.06 СЗ 1 4000 м дымка {ливн. осадки} 10/10 300 м
[Frnb]
+15.3 +14.4 94 +16 +16 по сезону 1013.9 995.3 +12.8 0.8
06 16.06 С 1 10 км дымка {ливн. осадки} 10/10 300 м
[Sc]
+16.5 +13.3 81 +17 +17 по сезону 1015.0 996.4 +12.8 0.8
09 16.06 С 3 10 км 9/9 600 м
[Cu Sc]
+17.4 +12.9 75 +17 +19 прохладно 1015.4 996.9
12 16.06 С 1 10 км 8/8 600 м
[Cu Sc]
+20.9 +9.6 48 +24 +26 комфорт 1015.0 996.6
15 16.06 С 2 10 км 5/4 600 м
[Cu hum Ci fib]
+21.4 +8.5 44 +23 +25 комфорт 1014.3 996.0
18 16.06 штиль 0 10 км 3/0
[Ci sp]
+17.6 +11.5 67 +18 +18 по сезону 1015.1 996.6 +22.1
21 16.06 штиль 0 н/о ясно +13.8 +11.3 85 +13 +13 прохладно 1015.6 996.8
00 17.06 штиль 0 4000 м дымка ясно +12.5 +11.5 94 +12 +12 по сезону 1015.5 996.6
03 17.06 штиль 0 10 км дымка ясно +15.9 +12.7 81 +16 +18 по сезону 1016.0 997.3 +12.0
06 17.06 СЗ 1 10 км 6/3 600 м
[Cu hum Ac trans]
+21.4 +12.3 56 +24 +29 комфорт 1015.3 997.0 +12.0
09 17.06 С 2 10 км 9/9 600 м
[Cu Sc]
+24.2 +9.2 39 +25 +27 комфорт 1014.4 996.2
12 17.06 З 1 10 км 6/6 600 м
[Cu Sc]
+26.0 +8.5 33 +26 +32 жарко 1013.3 995.3
15 17.06 СЗ 1 10 км 6/6 600 м
[Cu Sc]
+25.8 +9.4 35 +26 +28 жарко 1012.5 994.5
18 17.06 штиль 0 10 км 4/3 600 м
[Sc Ac trans]
+22.1 +12.0 53 +24 +24 комфорт 1013.0 994.8 +26.6
21 17.06 штиль 0 н/о 9/9 1000 м
[Sc]
+20.6 +13.9 65 +23 +23 комфорт 1013.0 994.7
00 18.06 штиль 0 10 км 10/10 600 м
[Sc]
+19.6 +14.9 74 +21 +21 комфорт 1012.8 994.4
03 18.06 штиль 0 4000 м дымка {ливн. осадки} 10/10 600 м
[Sc]
+18.2 +16.7 91 +19 +19 тепло 1013.3 994.8 +17.6 0.7
06 18.06 С 2 10 км {ливн. осадки} 9/9 600 м
[Sc]
+20.8 +14.5 67 +24 +25 комфорт 1013.3 995.0 +17.6 0.7
09 18.06 СЗ 2 10 км 8/8 1000 м
[Cu Sc]
+24.1 +11.7 46 +26 +29 жарко 1013.1 995.0
12 18.06 СЗ 2 10 км 9/9 1000 м
[Cu Sc]
+24.6 +11.0 42 +26 +27 жарко 1012.5 994.4
15 18.06 СЗ 2 10 км 6/6 1000 м
[Cu Sc]
+25.2 +12.1 44 +27 +28 жарко 1011.9 993.8
18 18.06 штиль 0 10 км 4/4 1000 м
[Cu Sc]
+22.1 +13.1 57 +25 +25 комфорт 1013.0 994.8 +26.2

 

Местоположение метеостанции Москва (город Москва, Россия): широта 55.83 долгота 37.62 высота над уровнем моря 156 м.

В архиве по умолчанию представлена погода в Москве за последнюю неделю. Архивные данные за месяц целиком и за предыдущие месяцы, начиная с января 2011 года, Вы можете получить, выбрав интересующий диапазон дат из раскрывающегося списка и нажав кнопку "Ввод!".


*Определитесь, кто Вы:
робот инопланетянин человек

Внимание! Время в таблицах - всемирное. Для получения местного времени необходимо прибавить поправку, которая равна 3 ч.

Смотрите также архив погоды в соседних городах и на ближайших метеорологических станциях:

Погода в Москве (Балчуг) (город Москва, Россия) (9 км)
Погода в Москве (Тушино) (город Москва, Россия) (12 км)
Погода в Долгопрудном (Московская область, Россия) (13 км)
Погода в Москве (Строгино) (город Москва, Россия) (14 км)
Погода в Красногорске (Московская область, Россия) (18 км)
Погода в Шереметьево (Московская область, Россия) (20 км)
Погода в Немчиновке (город Москва, Россия) (21 км)
Погода в Железнодорожном АМС (Московская область, Россия) (23 км)
Погода в Луговой (Московская область, Россия) (26 км)
Погода в Пушкино (Московская область, Россия) (26 км)

Пояснения к столбцам:

Ветер - указаны скорость ветра в м/с - средняя за 10 мин, порывы в срок и между сроками (в фигурных скобках) и направление, откуда дует ветер: С - северный, СВ - северо-восточный, В - восточный, ЮВ - юго-восточный, Ю - южный, ЮЗ - юго-западный, З - западный, СЗ - северо-западный.
Видимость - горизонтальная дальность видимости в метрах или километрах. При видимости от 1 до 10 км при отсутствии осадков обычно наблюдается дымка, при ухудшении видимости до 1 км и менее - туман. В сухую погоду видимость может ухудшаться дымом, пылью или мглою.
Явления - указаны атмосферные явления, наблюдавшиеся в срок или в последний час перед сроком; фигурными скобками обозначены явления, наблюдавшиеся между сроками (за 1-3 часа до срока); квадратными скобками обозначены град или гололедные отложения с указанием их диаметра в мм.
Облачность - указаны через наклонную черту общая и нижняя облачность в баллах и высота нижней границы облаков в метрах; квадратными скобками обозначены формы облаков: Ci - перистые, Cs - перисто-слоистые, Cc - перисто-кучевые, Ac - высококучевые, As - высокослоистые, Sc - слоисто-кучевые, Ns - слоисто-дождевые, Cu - кучевые, Cb - кучево-дождевые. Подробнее классификацию облаков см. в Атласе облаков (PDF).
T - Температура воздуха - температура, измеренная на высоте 2 м над землей.
Td - Температура точки росы - температура, при понижении до которой содержащийся в воздухе водяной пар достигнет насыщения.
f - Относительная влажность воздуха - влажноcть воздуха, измеренная на высоте 2 м над землей.
Te - Эффективная температура - температура, которую ощущает одетый по сезону человек в тени. Характеристика душности погоды. При расчете учитывается влияние влажности воздуха и скорости ветра на теплоощущения человека.
Tes - Эффективная температура на солнце - температура, которую ощущает человек, с поправкой на солнечный нагрев. Характеристика знойности погоды. Зависит от высоты солнца над горизонтом, облачности и скорости ветра. Ночью, в пасмурную погоду, а также при ветре 12 м/с и более поправка равна нулю.
P - Атмосферное давление - приведенное к уровню моря атмосферное давление.
Po - Атмосферное давление - измеренное на уровне метеостанции атмосферное давление.
Tmin - Минимальная температура - минимум температуры воздуха на высоте 2 м над землей.
Tmax - Максимальная температура - максимум температуры воздуха на высоте 2 м над землей.
R - Количество осадков - Количество выпавших осадков за период времени, мм. При наведении курсора мыши на число - период времени, за который выпало указанное количество осадков.
R24 - Количество осадков - Количество выпавших осадков за 24 часа, мм.
S - Снежный покров - Высота снежного покрова, см. При наведении курсора мыши на число - состояние снежного покрова и степень покрытия местности в баллах.